FW3669 Weather Reports


time (UTC)temp
C
wind
direction
speed
KPH
gust
KPH
rain 1hr
cm
rain 24hr
cm
rain mn
cm
humidity
%
barometer
mb
20260503180008 16 242 17.7 37.0 0.00 0.00 0.00 46 1010.9
20260503174503 15 243 11.3 24.1 0.00 0.00 0.00 48 1011.1
20260503173003 15 271 17.7 30.6 0.00 0.00 0.00 49 1011.5
20260503171603 15 252 14.5 38.6 0.00 0.00 0.00 48 1011.7
20260503081539 0 258 0.0 1.6 0.00 0.00 0.00 80 1015.4
20260503071526 2 281 0.0 3.2 0.00 0.00 0.00 74 1015.3
20260503054559 2 266 0.0 6.4 0.00 0.00 0.00 73 1015.6
20260503053057 2 236 1.6 6.4 0.00 0.00 0.00 74 1015.6
20260503051554 2 209 1.6 4.8 0.00 0.00 0.00 73 1015.7
20260503050052 2 214 1.6 8.0 0.00 0.00 0.00 73 1016.0
20260503044553 1 210 1.6 6.4 0.00 0.00 0.00 74 1016.1
20260503043046 1 217 0.0 1.6 0.00 0.00 0.00 75 1016.1
20260503041542 1 217 0.0 1.6 0.00 0.00 0.00 76 1016.3
20260503040039 1 217 0.0 3.2 0.00 0.00 0.00 75 1016.4
20260503034555 1 205 0.0 4.8 0.00 0.00 0.00 74 1016.4
20260503033037 1 124 0.0 1.6 0.00 0.00 0.00 75 1016.3
20260503031536 1 124 0.0 1.6 0.00 0.00 0.00 76 1016.4
20260503030041 1 124 0.0 1.6 0.00 0.00 0.00 77 1016.6
20260503024535 1 124 0.0 1.6 0.00 0.00 0.00 76 1016.7
20260503023035 1 124 0.0 3.2 0.00 0.00 0.00 77 1016.7
20260503021534 1 282 0.0 1.6 0.00 0.00 0.00 74 1016.8
20260503020034 1 282 0.0 1.6 0.00 0.00 0.00 77 1016.7
20260503014535 1 282 0.0 0.0 0.00 0.00 0.00 77 1016.7
20260503013033 2 282 0.0 1.6 0.00 0.00 0.00 73 1016.7
20260503011532 2 282 0.0 1.6 0.00 0.00 0.00 66 1016.6
20260503010035 3 282 0.0 0.0 0.00 0.00 0.00 61 1016.6
20260503004532 5 282 0.0 1.6 0.00 0.00 0.00 57 1016.5
20260503003047 7 282 0.0 1.6 0.00 0.00 0.00 51 1016.4
20260503001548 8 282 0.0 1.6 0.00 0.00 0.00 47 1016.4
20260503000032 8 283 1.6 8.0 0.00 0.00 0.00 46 1016.5
20260502234534 9 231 0.0 3.2 0.00 0.00 0.00 45 1016.6
20260502233028 8 269 3.2 9.7 0.00 0.00 0.00 45 1016.6
20260502231526 8 203 3.2 9.7 0.00 0.00 0.00 46 1016.6
20260502230032 8 135 0.0 6.4 0.00 0.00 0.00 51 1016.7
20260502224523 8 84 0.0 9.7 0.00 0.00 0.00 53 1016.8
20260502223020 7 87 0.0 8.0 0.00 0.00 0.00 56 1016.9
20260502221519 7 101 4.8 11.3 0.00 0.00 0.00 59 1017.0
20260502220016 7 86 3.2 8.0 0.00 0.00 0.00 62 1017.1
20260502214515 7 25 0.0 9.7 0.00 0.00 0.00 61 1017.1
20260502213021 7 2 0.0 6.4 0.00 0.00 0.00 60 1017.1
20260502211518 7 16 6.4 16.1 0.00 0.00 0.00 57 1017.1
20260502210012 7 309 9.7 17.7 0.00 0.00 0.00 51 1017.0
20260502204513 7 306 6.4 11.3 0.00 0.00 0.00 54 1017.0
20260502203010 7 288 8.0 14.5 0.00 0.00 0.00 54 1017.3
20260502201509 7 264 6.4 14.5 0.00 0.00 0.00 57 1017.4
20260502200008 7 284 6.4 16.1 0.00 0.00 0.00 54 1017.5
20260502194506 7 330 1.6 11.3 0.00 0.00 0.00 53 1017.9
20260502193006 7 276 8.0 12.9 0.00 0.00 0.00 52 1018.0
20260502191505 7 312 4.8 20.9 0.00 0.00 0.00 55 1017.9
20260502190004 7 321 11.3 19.3 0.00 0.00 0.00 54 1018.0
20260502184503 7 290 9.7 16.1 0.00 0.00 0.00 54 1018.3
20260502183002 6 320 9.7 17.7 0.00 0.00 0.00 56 1018.3
20260502181610 6 343 6.4 12.9 0.00 0.00 0.00 58 1018.2